Location: Izdebno
(52.6670°N, 16.2170°E)
Time: 03:45:24
(UTC+02:00)

Transit 4A - Pass Details

Date: 28 February 2024
Orbit: 871 x 972 km, 66.8° (Epoch: 22 April)

Event Time Altitude Azimuth Distance (km) Brightness Sun altitude
Rises 08:59:27 0° 320° (NW) 3,510 10.3 17.3°
Reaches altitude 10° 09:01:58 10° 318° (NW) 2,555 9.7 17.5°
Maximum altitude 09:07:51 73° 236° (SW) 917 8.2 18.2°
Drops below altitude 10° 09:13:37 10° 152° (SSE) 2,515 11.9 18.9°
Sets 09:16:05 0° 151° (SSE) 3,450 12.3 19.1°
